Regional Weather Roundup
Issued by NWS

Home | Current Version | Previous Version | Graphics & Text | Print | Product List | Glossary On
Versions: 1 2 3 4 5 6 7 8 9 10 11 12 13 14 15 16 17 18 19 20 21 22 23 24 25 26 27 28 29 30 31 32 33 34 35 36 37 38 39 40 41 42 43 44 45 46 47 48 49 50
000
ASUS43 KFSD 021302
RWRSD

WEATHER ROUNDUP FOR SOUTH DAKOTA
NATIONAL WEATHER SERVICE SIOUX FALLS SD
700 AM CST MON MAR 02 2015

NOTE: "FAIR" INDICATES FEW OR NO CLOUDS BELOW 12,000 FEET WITH NO
SIGNIFICANT WEATHER AND/OR OBSTRUCTIONS TO VISIBILITY.


SDZ001>005-009-010-012>017-021400-
NORTHWEST AND NORTH CENTRAL SOUTH DAKOTA

CITY           SKY/WX    TMP DP  RH WIND       PRES   REMARKS
BUFFALO          N/A     13   7  77 S9        29.92F WCI   1
FAITH            N/A     12   5  73 SE18      30.06F WCI  -6
MOBRIDGE       CLEAR      8   4  83 SE9       30.21F WCI  -5
$$

SDZ012>016-024>037-041>051-057-063-072>074-021400-
SOUTHWEST AND SOUTH CENTRAL SOUTH DAKOTA

CITY           SKY/WX    TMP DP  RH WIND       PRES   REMARKS
RAPID CTY ARPT PTCLDY    16   8  71 S16       30.01F WCI   1
PIERRE         CLEAR     14  10  84 SE12      30.25F WCI   0
CUSTER         PTCLDY    17  11  77 SW7       29.92F WCI   8
ELLSWORTH AFB  PTCLDY    20   9  62 S15       29.99F WCI   6
PHILIP         PTCLDY    14   8  77 E10       30.13F WCI   1
PINE RIDGE     PTCLDY    27  13  55 S13       30.06F WCI  16
WINNER         PTSUNNY   23   7  50 S14       30.25F WCI  11
$$

SDZ004>011-016>023-039-040-021400-
NORTHEAST SOUTH DAKOTA

CITY           SKY/WX    TMP DP  RH WIND       PRES   REMARKS
ABERDEEN       HAZE       4  -2  76 S5        30.36F VSB 1/2 WCI  -5
WATERTOWN      PTCLDY     0  -4  83 SE6       30.35F WCI -12
SISSETON         N/A      6   0  76 SW10      30.37F WCI  -9
$$

SDZ017-020-022-023-036>040-048>070-021400-
SOUTHEAST SOUTH DAKOTA

CITY           SKY/WX    TMP DP  RH WIND       PRES   REMARKS
SIOUX FALLS    PTCLDY     2  -3  80 CALM      30.41F
HURON          PTCLDY     8   6  92 S8        30.38F WCI  -4
CHAMBERLAIN    PTCLDY    13   9  85 SE10      30.31F WCI   0
MITCHELL       PTCLDY    10   8  92 S7        30.40F WCI  -1
YANKTON        PTCLDY    12   9  85 E3        30.44S
$$

ABBREVIATIONS USED IN REMARKS
   TC - TEMPERATURE IN CELSIUS
  WCI - WIND CHILL INDEX
   HX - HEAT INDEX
  VSB - VISIBILITY




USA.gov is the U.S. government's official web portal to all federal, state and local government web resources and services.